Location: Durham
(54.7770°N, 1.5720°W)
Time: 21:03:07
(UTC+01:00)

ISS - Visible Passes

Search period start: 29 July 2015 00:00
Search period end: 08 August 2015 00:00
Orbit: 401 x 403 km, 51.6° (Epoch: 29 July)

Date Brightness Start Highest point End Pass type
(mag) Time Alt. Az. Time Alt. Az. Time Alt. Az.
29 Jul -1.0 00:35:12 13° ESE 00:35:12 13° ESE 00:35:45 10° E visible
29 Jul -3.2 02:07:48 31° SW 02:08:57 48° S 02:12:08 10° ESE visible
29 Jul -2.7 03:42:04 10° W 03:45:04 34° SSW 03:48:06 10° SE visible
30 Jul -2.7 01:16:47 37° SE 01:16:47 37° SE 01:19:13 10° E visible
30 Jul -3.0 02:49:24 12° W 02:52:13 42° SSW 02:55:20 10° ESE visible
30 Jul -1.8 04:25:49 10° WSW 04:28:09 18° SSW 04:30:27 10° SSE visible
31 Jul -0.7 00:26:13 10° E 00:26:13 10° E 00:26:16 10° E visible
31 Jul -3.2 01:58:53 43° SW 01:59:21 47° S 02:02:31 10° ESE visible
31 Jul -2.3 03:32:39 10° W 03:35:23 25° SSW 03:38:07 10° SSE visible
31 Jul -2.6 23:27:28 10° SW 23:30:22 30° SSE 23:30:52 29° SE visible
01 Aug -0.9 01:03:18 10° WSW 01:10:29 - E 01:03:37 12° WSW visible
01 Aug -2.3 02:43:23 28° S 02:43:23 28° S 02:45:33 10° SE visible
01 Aug -1.3 04:17:16 10° WSW 04:18:20 11° SW 04:19:19 10° SSW visible
01 Aug -2.1 22:34:57 10° SSW 22:37:35 23° SSE 22:40:15 10° E visible
02 Aug -3.1 00:10:26 10° WSW 00:13:35 46° S 00:13:38 46° S visible
02 Aug -2.9 23:17:38 10° WSW 23:20:43 40° SSE 23:22:45 18° ESE visible
03 Aug -1.9 00:53:43 10° W 00:55:21 25° WSW 00:55:21 25° WSW visible
03 Aug -2.6 22:24:55 10° SW 22:27:53 32° SSE 22:30:52 10° E visible
04 Aug -3.2 00:00:49 10° WSW 00:03:59 48° S 00:04:14 47° SSE visible
04 Aug -3.1 23:07:57 10° WSW 23:11:07 47° S 23:13:02 20° ESE visible
05 Aug -1.6 00:44:11 10° W 00:45:37 22° WSW 00:45:37 22° WSW visible
05 Aug -2.9 22:15:08 10° WSW 22:18:15 42° S 22:21:21 10° E visible
05 Aug -3.0 23:51:16 10° W 23:54:24 44° S 23:54:25 44° S visible
06 Aug -3.1 22:58:21 10° WSW 23:01:31 48° S 23:03:10 24° ESE visible
07 Aug -1.2 00:34:44 10° W 00:35:46 17° WSW 00:35:46 17° WSW visible
07 Aug -3.0 22:05:29 10° WSW 22:08:39 48° S 22:11:49 10° ESE visible
07 Aug -2.6 23:41:45 10° W 23:44:32 35° SSW 23:44:32 35° SSW visible
